Volver al catálogo

STARLINK-34599

ActivoComunicacionesVLEO
NORAD 64919·PAYLOAD·🇺🇸 United States

Lanzado Jul 26, 2025 desde Cape Canaveral Space Force Station

Loading…

Próximos Pases (próximas 24 horas)

TLE

ActualizadoSource: CelesTrak SupGP

Época: Sep 15, 2026, 02:45 UTC

1 64919C 25157R   26258.11506944 -.00072147  00000+0 -21316-2 0  2587
2 64919  53.1581 183.2189 0001350  88.1769 212.8871 15.34426471    11

Sigue STARLINK-34599 en tiempo real con AllMySat

Download on the App Store